Location: Ocean City
(38.3360°N, 75.0850°W)
Time: 19:07:33
(UTC-04:00)

Envisat - Visible Passes

Search period start: 24 March 2019 00:00
Search period end: 03 April 2019 00:00
Orbit: 764 x 766 km, 98.2° (Epoch: 24 March)

Date Brightness Start Highest point End Pass type
(mag) Time Alt. Az. Time Alt. Az. Time Alt. Az.
24 Mar 4.0 20:04:03 10° S 20:08:57 50° W 20:13:54 10° NNW visible
25 Mar 6.1 21:09:52 10° WSW 21:11:42 12° W 21:13:32 10° WNW visible
26 Mar 5.1 20:30:18 10° SSW 20:34:36 28° W 20:38:57 10° NW visible
27 Mar 3.5 19:52:41 10° S 19:57:43 65° W 20:02:46 10° NNW visible
28 Mar 5.9 20:57:23 10° SW 21:00:21 16° W 21:03:20 10° NW visible
29 Mar 4.7 20:18:42 10° SSW 20:23:19 35° W 20:27:59 10° NNW visible
30 Mar 3.2 19:41:25 10° S 19:46:30 83° W 19:51:36 10° NNW visible
31 Mar 5.7 20:45:22 10° SW 20:49:01 20° W 20:52:43 10° NW visible
01 Apr 4.2 20:07:13 10° S 20:12:04 45° W 20:16:56 10° NNW visible
02 Apr 6.2 21:13:52 10° W 21:14:50 10° W 21:15:49 10° WNW visible
